TimeEDT,TemperatureF,Dew PointF,Humidity,Sea Level PressureIn,VisibilityMPH,Wind Direction,Wind SpeedMPH,Gust SpeedMPH,PrecipitationIn,Events,Conditions,WindDirDegrees,DateUTC
12:15 AM,48.2,46.4,93,29.92,10.0,Calm,Calm,-,N/A,,Clear,0,2012-10-18 04:15:00
12:35 AM,48.2,46.4,93,29.92,10.0,Calm,Calm,-,N/A,,Clear,0,2012-10-18 04:35:00
12:55 AM,46.4,46.4,100,29.91,10.0,Calm,Calm,-,N/A,,Clear,0,2012-10-18 04:55:00
1:15 AM,46.4,46.4,100,29.91,10.0,Calm,Calm,-,N/A,,Clear,0,2012-10-18 05:15:00
1:35 AM,46.4,46.4,100,29.91,10.0,Calm,Calm,-,N/A,,Clear,0,2012-10-18 05:35:00
1:55 AM,46.4,46.4,100,29.92,10.0,Calm,Calm,-,N/A,,Clear,0,2012-10-18 05:55:00
2:35 AM,44.6,44.6,100,29.91,10.0,Calm,Calm,-,N/A,,Clear,0,2012-10-18 06:35:00
2:55 AM,50.0,50.0,100,29.91,10.0,Calm,Calm,-,N/A,,Clear,0,2012-10-18 06:55:00
3:15 AM,48.2,48.2,100,29.91,10.0,South,3.5,-,N/A,,Clear,190,2012-10-18 07:15:00
3:35 AM,46.4,46.4,100,29.91,10.0,Calm,Calm,-,N/A,,Clear,0,2012-10-18 07:35:00
3:55 AM,46.4,46.4,100,29.90,10.0,Calm,Calm,-,N/A,,Clear,0,2012-10-18 07:55:00
4:15 AM,46.4,46.4,100,29.91,10.0,Calm,Calm,-,N/A,,Clear,0,2012-10-18 08:15:00
4:35 AM,44.6,44.6,100,29.91,7.0,Calm,Calm,-,N/A,,Clear,0,2012-10-18 08:35:00
4:55 AM,44.6,44.6,100,29.91,7.0,Calm,Calm,-,0.04,,Unknown,0,2012-10-18 08:55:00
5:15 AM,44.6,44.6,100,29.91,5.0,Calm,Calm,-,N/A,,Mist,0,2012-10-18 09:15:00
5:35 AM,44.6,44.6,100,29.90,7.0,Calm,Calm,-,N/A,,Unknown,0,2012-10-18 09:35:00
5:55 AM,44.6,44.6,100,29.91,7.0,Calm,Calm,-,N/A,,Unknown,0,2012-10-18 09:55:00
6:15 AM,44.6,44.6,100,29.91,4.0,Calm,Calm,-,N/A,,Mist,0,2012-10-18 10:15:00
6:35 AM,44.6,44.6,100,29.91,4.0,Calm,Calm,-,N/A,,Mist,0,2012-10-18 10:35:00
6:55 AM,42.8,42.8,100,29.91,4.0,Calm,Calm,-,N/A,,Mist,0,2012-10-18 10:55:00
7:15 AM,42.8,42.8,100,29.90,4.0,Calm,Calm,-,N/A,,Mist,0,2012-10-18 11:15:00
7:35 AM,44.6,44.6,100,29.89,5.0,Calm,Calm,-,N/A,,Mist,0,2012-10-18 11:35:00
7:55 AM,44.6,44.6,100,29.91,4.0,Calm,Calm,-,N/A,,Mist,0,2012-10-18 11:55:00
8:15 AM,46.4,46.4,100,29.90,5.0,Calm,Calm,-,N/A,,Mist,0,2012-10-18 12:15:00
8:55 AM,50.0,50.0,100,29.92,7.0,Calm,Calm,-,N/A,,Unknown,0,2012-10-18 12:55:00
9:15 AM,53.6,53.6,100,29.91,10.0,Calm,Calm,-,N/A,,Unknown,0,2012-10-18 13:15:00
9:35 AM,53.6,53.6,100,29.91,10.0,Calm,Calm,-,N/A,,Unknown,0,2012-10-18 13:35:00
10:15 AM,55.4,55.4,100,29.90,10.0,Calm,Calm,-,N/A,,Unknown,0,2012-10-18 14:15:00
10:35 AM,55.4,55.4,100,29.88,10.0,Calm,Calm,-,N/A,,Unknown,0,2012-10-18 14:35:00
10:55 AM,57.2,55.4,94,29.88,10.0,Calm,Calm,-,N/A,,Unknown,0,2012-10-18 14:55:00
11:15 AM,59.0,57.2,94,29.87,10.0,Calm,Calm,-,N/A,,Unknown,0,2012-10-18 15:15:00
11:35 AM,60.8,57.2,88,29.87,10.0,Calm,Calm,-,N/A,,Unknown,0,2012-10-18 15:35:00
12:15 PM,66.2,59.0,78,29.85,10.0,SE,9.2,-,N/A,,Unknown,140,2012-10-18 16:15:00
12:35 PM,68.0,60.8,78,29.85,10.0,South,4.6,-,N/A,,Unknown,170,2012-10-18 16:35:00
12:55 PM,68.0,60.8,78,29.86,10.0,South,6.9,-,N/A,,Unknown,170,2012-10-18 16:55:00
1:15 PM,68.0,60.8,78,29.85,10.0,South,5.8,-,N/A,,Unknown,190,2012-10-18 17:15:00
1:35 PM,69.8,60.8,73,29.83,10.0,South,4.6,-,N/A,,Unknown,190,2012-10-18 17:35:00
1:55 PM,69.8,60.8,73,29.83,10.0,South,5.8,-,N/A,,Unknown,170,2012-10-18 17:55:00
2:15 PM,71.6,59.0,64,29.82,10.0,South,4.6,-,N/A,,Unknown,190,2012-10-18 18:15:00
2:35 PM,71.6,59.0,64,29.81,10.0,South,9.2,-,N/A,,Unknown,190,2012-10-18 18:35:00
2:55 PM,71.6,59.0,64,29.80,10.0,South,4.6,-,N/A,,Unknown,180,2012-10-18 18:55:00
3:15 PM,71.6,59.0,64,29.80,10.0,South,5.8,-,N/A,,Unknown,170,2012-10-18 19:15:00
3:35 PM,69.8,59.0,68,29.79,10.0,SSW,4.6,-,N/A,,Unknown,200,2012-10-18 19:35:00
3:55 PM,69.8,59.0,68,29.79,10.0,SSE,3.5,-,N/A,,Unknown,150,2012-10-18 19:55:00
4:15 PM,69.8,60.8,73,29.79,10.0,Calm,Calm,-,N/A,,Unknown,0,2012-10-18 20:15:00
4:35 PM,69.8,60.8,73,29.79,10.0,Calm,Calm,-,N/A,,Unknown,0,2012-10-18 20:35:00
4:55 PM,68.0,60.8,78,29.79,10.0,South,3.5,-,N/A,,Unknown,170,2012-10-18 20:55:00
5:15 PM,69.8,60.8,73,29.79,10.0,Calm,Calm,-,N/A,,Unknown,0,2012-10-18 21:15:00
5:35 PM,68.0,60.8,78,29.79,10.0,South,3.5,-,N/A,,Unknown,170,2012-10-18 21:35:00
5:55 PM,68.0,60.8,78,29.79,10.0,SSE,3.5,-,N/A,,Unknown,150,2012-10-18 21:55:00
6:15 PM,66.2,62.6,88,29.79,10.0,Calm,Calm,-,N/A,Rain,Light Rain,0,2012-10-18 22:15:00
6:35 PM,64.4,62.6,94,29.79,10.0,Calm,Calm,-,N/A,,Unknown,0,2012-10-18 22:35:00
6:55 PM,64.4,64.4,100,29.80,10.0,Calm,Calm,-,N/A,,Unknown,0,2012-10-18 22:55:00
7:15 PM,64.4,64.4,100,29.80,10.0,Calm,Calm,-,N/A,,Unknown,0,2012-10-18 23:15:00
7:55 PM,62.6,62.6,100,29.79,10.0,Calm,Calm,-,N/A,,Unknown,0,2012-10-18 23:55:00
8:15 PM,62.6,62.6,100,29.79,10.0,Calm,Calm,-,N/A,,Unknown,0,2012-10-19 00:15:00
8:35 PM,62.6,62.6,100,29.78,10.0,Calm,Calm,-,N/A,,Unknown,0,2012-10-19 00:35:00
8:55 PM,62.6,62.6,100,29.80,10.0,West,4.6,-,N/A,,Unknown,280,2012-10-19 00:55:00
9:15 PM,62.6,60.8,94,29.80,10.0,Calm,Calm,-,N/A,,Unknown,0,2012-10-19 01:15:00
9:55 PM,60.8,60.8,100,29.80,10.0,Calm,Calm,-,N/A,,Unknown,0,2012-10-19 01:55:00
10:15 PM,60.8,60.8,100,29.80,10.0,Calm,Calm,-,N/A,,Unknown,0,2012-10-19 02:15:00
10:35 PM,60.8,60.8,100,29.81,1.5,Calm,Calm,-,N/A,Rain,Heavy Rain,0,2012-10-19 02:35:00
10:55 PM,60.8,60.8,100,29.79,10.0,Calm,Calm,-,N/A,,Unknown,0,2012-10-19 02:55:00
11:15 PM,59.0,59.0,100,29.79,2.5,Calm,Calm,-,N/A,,Mist,0,2012-10-19 03:15:00
11:55 PM,59.0,59.0,100,29.79,1.0,Calm,Calm,-,N/A,,Mist,0,2012-10-19 03:55:00